Best football and soccer betting tips 1×2

europol-fixed.bloger.index.hr
king is beck

 

Fixed match predictions betting tip

HT-FT OFFER

We are only selling on the Internet 8 or 10 matches of the more 20(on average) matches we receive a month. We cannot sell all the matches that we know about to protect the confidentiality of the players, because we usually receive 1-2 matches with fixed outcome from the same team, and if we sell all such matches, the amount of bets on a given outcome with the given team will be large enough to raise doubts, which eventually can result in legal proceedings for all the parties involved in the arrangement

of a fixed match.

 

NEXT HT-FT FIXED MATCH

Date: 27/05/2017

( SATURDAY )
Tip: Half time/Full time

Odd: 30.00
Safe 100%

More Info: contact.matches@yahoo.com

CONGRATULATIONS TO ALL OUR BUYERS !!
The match that our buyers bought was:

Date: 20.05.2017

RUSSIA: Division 1

13:00h Sibir – Spartak Moscow 2

Tip: 2/1

odd: 26.00

HT: 0-1 /FT: 2-1

Date Match Tip Odds Ht Ft
04.09.2016 Viikingit – Espoo 1-2 23.00 1:0 1:3
11.09.2016 Sport Recife – Santa Cruz 2-1 26.00 0:1 5:3
18.09.2016 Nordsjaelland – Sonderjyske 1-2 29.00 2:0 2:3
24.09.2016 Colchester – Accrington 1-2 34.00 1:0 1:2
01.10.2016 Bristol City – Nottingham 2-1 26.00 0:1 2:1
08.10.2016 Deportivo Merlo – Sportivo Italiano 2-1 34.00 0:1 2:1
16.10.2016 Slutsk – Vitebsk 2-1 34.00 0:1 2:1
22.10.2016 Fylde – Harrogate 2-1 23.00 0:1 2:1
29.10.2016 Bahia – Ceara 2-1 23.00 0:1 3:1
05.11.2016 Stal Mielec – Tychy 2-1 29.00 0:1 3:2
12.11.2016 Wealdstone – Eastbourne Borough 1-2 29.00 1:0 1:4
19.11.2016 Forest Green – Lincoln City 1-2 34.00 1:0 2:3
27.11.2016 Auerbach – BFC Dynamo 2-1 34.00 1:2 3:2
03.12.2016 Ried – Mattersburg 2-1 26.00 0:1 2:1
10.12.2016 Heerenveen – Excelsior 2-1 23.00 0:1 2:1
17.12.2016 Spezia – Perugia 2-1 34.00 0:1 2:1
26.12.2016 Dungannon – Ballinamallard 2-1 23.00 0:1 3:2
31.12.2016 East Fife – Livingston 2-1 34.00 0:1 2:1
07.01.2017 Covilha – Freamunde 1-X 17.00 1:0 1:1
14.01.2017 Ballymena – Dungannon 2-1 23.00 0:1 3:2
21.01.2017 Halifax – Salford 2-1 26.00 0:2 4:2
28.01.2017 Kilmarnock – Ross County 2-1 34.00 1:2 3:2
04.02.2017 Crawley Town – Stevenage 1-2 29.00 1:0 1:2
11.02.2017 Coleraine – Dungannon 2-1 23.00 0:1 2:1
18.02.2017 Fjolnir – Vestmannaeyjar 1-2 26.00 2:1 2:3
25.02.2017 Gloucester City – United of Manchester 1-2 29.00 2:0 2:3
04.03.2017 Wehen – VfL Osnabruck 2-1 26.00 0:1 2:1
11.03.2017 Wattenscheid-B. Moenchengladbach II 2-1 34.00 1:2 3:2
18.03.2017 Fylkir – Selfoss 1-2 29.00 1:0 1:2
25.03.2017 Dortmund II – Viktoria Koln 1-2 29.00 1:0 2:3
01.04.2017 Mansfield – Exeter 1-2 34.00 1:0 1:2
08.04.2017 Northampton – Sheffield Utd 1-2 23.00 1:0 1:2
15.04.2017 Villarreal B – Hercules 2-1 26.00 0:1 2:1
22.04.2017 Bristol City – Barnsley 2-1 23.00 0:1 3:2
29.04.2017 Gosport – Whitehawk 1-2 23.00 1:0 2:3
06.05.2017 Thun – Luzern 2-1 23.00 0:1 3:1
13.05.2017 Criciuma – Santa Cruz 1-2 41.00 1:0 1:2
20.05.2017 Sibir – Spartak Moscow 2 2-1 26.00 0:1 2:1
27.05.2017

 

Free Football Tips free picks

www.fixed-dojave-ht-ft.com is composed of the main sources of fixed matches in Europe and in the world. If you cooperate with us your profit is guaranteed. People around the world want to work with us because they know that with www.fixed-dojave-ht-ft.com always they are 100% satisfied. Fortunately the work going on the right track and all of our customers are happy and completely trust us.
We provide the best matches with the biggest chance to win.
New match, hurry if you want to get it.. 100% profit guaranteed

For 27.05.2017 ( Saturday ) and 28.05.2017 ( Sunday ) have 4 VIP Matches
Around : 20-50.00 odd
Matches is 100% safe

.

Date Home Away Tip FT Odd
27.05.2017 ??? – ???
??? ??? ??? ???
27.05.2017 ??? – ??? ??? ??? ??? ???
27.05.2017 ??? – ??? ??? ??? ??? ???
27.05.2017 ??? – ??? ??? ??? ??? ???
TICKET ODDS : ??.??

.

Date Home Away Tip FT Odd
28.05.2017 ??? – ???
??? ??? ??? ???
28.05.2017 ??? – ??? ??? ??? ??? ???
28.05.2017 ??? – ??? ??? ??? ??? ???
28.05.2017 ??? – ??? ??? ??? ??? ???
TICKET ODDS : ??.??

.

Date Home – Away
Tip FT Odd
20.05.2017 Kuban – Spartak Nalchik 3+ 3:1 2.25
20.05.2017 Belgrano – Patronato BTTS 1:1 2.15
20.05.2017 Hellerup – Odder 1 6:1 1.95
20.05.2017 Santa Cruz – Guarani 1 2:1 2.00
TICKET ODDS : 18.00 – WIN

.

Date Home – Away
Tip FT Odd
21.05.2017 Karmiotissa – Aris 1 5:1 2.25
21.05.2017 Club Brugge KV – Gent 1 2:1 2.10
21.05.2017 Vasco De Gama – Bahia 1 2:1 2.10
21.05.2017 Varzim – Vizela 3+ 0:3 2.10
TICKET ODDS : 20.00 – WIN

.

Date Home – Away
Tip FT Odd
13.05.2017 Podbeskidzie – Tychy 3+ 2:2 2.00
13.05.2017 Pro Vercelli – Brescia 3+ 2:2 2.75
13.05.2017 Kilmarnock – Inverness 1 2:1 2.50
13.05.2017 Waasland Beveren – Lierse 1 3:2 2.10
TICKET ODDS : 28.00 – WIN

.

Date Home – Away
Tip FT Odd
14.05.2017 Mjallby – Oddevold 1 3:1 2.15
14.05.2017 Ufa – FK Anzi Makhackala 1 2:1 2.50
14.05.2017 Xamax – Servette Geneve FC 1 1:0 2.00
14.05.2017 Nantes – Guingamp 1 4:1 2.00
TICKET ODDS : 21.00 – WIN

.

Date Home – Away
Tip FT Odd
06.05.2017 SpVgg Bayreuth – Buchbach 2 0:3 2.80
06.05.2017 Jablonec – Plzen 2 2:2 2.10
06.05.2017 Thun – Luzern 1 3:1 2.10
06.05.2017 Newport – Notts County 1 2:1 2.10
TICKET ODDS : 26.00 – LOSE

.

Date Home – Away
Tip FT Odd
07.05.2017 Rennes – Montpellier 1 1:0 2.25
07.05.2017 Zwolle – Heerenveen 1 2:1 2.40
07.05.2017 Flamengo RJ – Fluminense 1 2:1 2.50
07.05.2017 Marseille – Nice 1 2:1 2.00
TICKET ODDS : 27.00 – WIN

.

Betting tips bet tips football betting predictions

 

Package Tips Price Odds
5 Insider tip 5 60 2.00 – 4.50
10 Insider tip 10 100 2.00 – 4.50
20 Insider tip 20 150 2.00 – 4.50
30 Insider tip 30 200 2.00 – 4.50

More Info: contact.matches@yahoo.com

.

APRIL

Date Match Tip Odds Ft
01.04.2017 Luton – Blackpool
1 2.25 1:0
02.04.2017 Lanus – Banfield 3+ 2.35 4:2
03.04.2017 Sonderjyske – FC Copenhagen 3+ 2.10 1:2
04.04.2017 Entella – Ascoli 1/1 2.75 1:0 / 2:1
05.04.2017 AlbinoLeffe – Reggiana BTTS 2.20 1:1
06.04.2017 Valencia – Celta Vigo 1 2.10 3:2
07.04.2017 Cracovia – Slask Wroclaw 1 2.10 1:0
08.04.2017 Chambly – Concarneau 3+ 2.50 3:3
09.04.2017 Lugano – Sion 4+ 2.75 4:2
10.04.2017 Tomsk – Rubin Kazan 3+ 2.15 2:2
11.04.2017 Baroka – Free State Stars 1 2.40 2:1
12.04.2017 Mezokovesd Zsory – Debrecen 1 2.70
2:1
13.04.2017 Brabrand – Hvidovre 1 2.10 2:2
14.04.2017 Newport – Yeovil 1 2.25 1:0
15.04.2017 Aves – Covilha 3+ 2.50 2:1
16.04.2017 Ruzomberok – Slovan Bratislava 1 2.50 2:1
17.04.2017 Yeovil – Crewe 1 2.50 3:0
18.04.2017 Ballymena – Cliftonville 1 3.25 4:1
19.04.2017 Portimonense – Aves 1 2.50 2:1
20.04.2017 || FREE DAY ||
|| || ||
21.04.2017 FC Koln – Hoffenheim X 3.40 1:1
22.04.2017 Woking – York X 3.50 1:1
23.04.2017 CSKA Sofia – Ludogorets X 3.10 1:1
24.04.2017 Parma – Sudtirol X 3.80 0:1
25.04.2017 Wolves – Huddersfield 2 2.50 0:1
26.04.2017 Wolves – Huddersfield 3+ 2.10 2:2
27.04.2017 || FREE DAY || || || ||
28.04.2017 Bohemians – Finn Harps 1 2.30 2:0
29.04.2017 Nykopings – Brage 2 2.50 0:3
30.04.2017 Inter – Napoli 2 2.30 0:1

.

MAY

Date Match Tip Odds Ft
01.05.2017 Liberec – Bohemians 1905
1 2.00 4:1
02.05.2017 Wattens – Kapfenberg 1 2.00 4:1
03.05.2017 Sport Huancayo – Alianza Lima 3+ 2.10 1:2
04.05.2017 Mamelodi Sundowns – Platinum Stars 3+ 2.25 2:2
05.05.2017 Athlone – Cobh Ramblers BTTS 2.15 2:1
06.05.2017 Brown Adrogue – Instituto 1 2.10 2:0
07.05.2017 Arsenal – Manchester United 1 2.25 2:0
08.05.2017 AC Ajaccio – GFC Ajaccio 1 2.75 1:0
09.05.2017 Morton – Dundee Utd 3+ 2.10 1:2
10.05.2017 Botev Plovdiv – Slavia Sofia 3+ 2.10 3:1
11.05.2017 || FREE DAY || || || ||
12.05.2017 Kopavogur – Leiknir 1 2.50 3:2
13.05.2017 Golden Arrows – Baroka 3+ 2.30 3:2
14.05.2017 FK Rostov – Rubin Kazan 3+ 2.50 4:2
15.05.2017 Djurgarden – Goteborg 1 2.10 1:0
16.05.2017 Leczna – Cracovia 1 2.75 3:0
17.05.2017 Randers FC – Aalborg 1 2.20 2:1
18.05.2017 || FREE DAY || || || ||
19.05.2017 Le Havre – Orleans 3+ 2.25 4:1
20.05.2017 UCAM Murcia – Huesca 3+ 2.35 3:1
21.05.2017 Instituto – Ferro 1 2.30 2:0
22.05.2017 Sportivo Italiano – San Miguel 1 2.50 2:0
23.05.2017
24.05.2017
25.05.2017
26.05.2017
27.05.2017
28.05.2017
29.05.2017
30.05.2017
31.05.2017

.

Single match soccer predictions 1×2

 

balkan-bet1x2.sportal.tips barcelonabet1x2
fixed-matches
bettingfixed
http://oi59.tinypic.com/wmo136.jpg
real fixed matches smart betting 1x2
professional-tips1x2.com/ revolution tips 1x2

soccer fixed match Big odds bet of the day prediction 1×2

22-05-2017
20:51:34

sure-source1x2 bookenemy sportal tips
manipulated-fixed-matches.bloger.index.hr borussiadortmund1x2

23.05.2017

IRELAND: Premier Division

20:45pm Drogheda – Bray
Pick: 2 Odds: 1.95 Ft: ?:?

fixed-dojave-ht-ft

http://www.best-soccer-tips1x2.com/wp-content/uploads/2014/12/best-soccer-tips1x2.gif topbetfixed
http://oi60.tinypic.com/2e65wzn.jpg

 

bet of the day Big odds soccer fixed prediction 1×2

21-05-2017
10:19:46

21.05.2017

SLOVENIA: Prva liga

16:55pm Celje – Rudar
Pick: 1 Odds: 2.00  Ft: 1:1

fixed-dojave-ht-ft

 

Big odds soccer fixed prediction bet of the day 1×2

20-05-2017
07:53:24

20.05.2017

GERMANY: Regionalliga Bayern

14:00pm Rosenheim – Buchbach
Pick: 2 Odds: 2.15 Ft: 2:3

fixed-dojave-ht-ft

 

Big odds soccer fixed prediction bet

18-05-2017
09:50:21

19.05.2017

SLOVAKIA: Fortuna liga

17:30pm Podbrezova – Ruzomberok
Pick: BTTS – YES Odds: 1.95  Ft: 0:1

fixed-dojave-ht-ft

 

soccer bet fixed matches predictions 1×2

17-05-2017
08:10:28

17.05.2017

TURKEY: Turkish Cup – Play Offs

19:45pm Fenerbahce – Basaksehir
Pick: BTTS – YES Odds: 1.85  Ft: 2:2

fixed-dojave-ht-ft

 

soccer bet fixed matches 100 winning predictions

13-05-2017
04:39:54

13.05.2017

SERBIA: Super Liga – Championship Group

19:00pm Napredak – Javor
Pick: 1 Odds: 2.00  Ft: 3:0

fixed-dojave-ht-ft

 

soccer bet fixed matches 100 winning

11-05-2017
07:19:24

12.05.2017

POLAND: Ekstraklasa

18:00pm Zaglebie – Piast Gliwice
Pick: 1 Odds: 2.10 Ft: 3:1

fixed-dojave-ht-ft

 

soccer bet 100 winning predictions fixed matches 1×2

08-05-2017
09:47:49

08.05.2017

FRANCE: Ligue 2

20:45pm Lens – Strasbourg
Pick: BTTS – YES Odds: 1.85  Ft: 1:1

fixed-dojave-ht-ft

 

100 winning predictions fixed matches soccer bet 1×2

07-05-2017
08:30:49

07.05.2017

CZECH REPUBLIC: 1. Liga

17:00pm Hradec Kralove – Teplice
Pick: 2 Odds: 2.60  Ft: 0:2

fixed-dojave-ht-ft